Regional Weather Roundup
Issued by NWS

Home | Current Version | Previous Version | Text Only | Print | Product List | Glossary Off
Versions: 1 2 3 4 5 6 7 8 9 10 11 12 13 14 15 16 17 18 19 20 21 22 23 24 25 26 27 28 29 30 31 32 33 34 35 36 37 38 39 40 41 42 43 44 45 46 47 48 49 50

154
ASUS45 KCYS 240210
RWRWY

WYOMING REGIONAL WEATHER ROUNDUP
NATIONAL WEATHER SERVICE CHEYENNE WY
800 PM MDT SUN APR 23 2017

NOTE:  "FAIR" INDICATES FEW OR NO CLOUDS BELOW 12,000 FEET
WITH NO SIGNIFICANT WEATHER AND/OR OBSTRUCTIONS TO VISIBILITY.

WYZ001-240300-
YELLOWSTONE NATIONAL PARK

CITY           SKY/WX    TMP DP  RH WIND       PRES   REMARKS
LK YELLOWSTONE   N/A     32  32 100 W8        29.83S WCI  25
W YELLOWSTONE  NOT AVBL

$$
WYZ002>013-054>058-071-098>099-240300-
NORTHERN WYOMING

CITY           SKY/WX    TMP DP  RH WIND       PRES   REMARKS
JACKSON        MOCLDY    45  27  49 S9        29.80S
CODY           MOCLDY    52  34  50 NW7       29.70R
GREYBULL       MOCLDY    63  32  31 NW13      29.60R
WORLAND        MOCLDY    60  42  51 W6        29.61R
SHERIDAN       CLOUDY    61  37  41 W21       29.60R
BUFFALO        FAIR      60  33  36 VRB3      29.63R
GILLETTE       MOCLDY    57  44  62 W5        29.58S
HULETT         FAIR      52  39  62 E10       29.63F
NEWCASTLE      FAIR      64  27  24 S8G20     29.59F

$$
WYZ014>020-022>026-101>103-240300-
CENTRAL WYOMING

CITY           SKY/WX    TMP DP  RH WIND       PRES   REMARKS
BIG PINEY      MOCLDY    44  27  51 N9        29.85F
PINEDALE       CLOUDY    41  30  65 N7        29.86S
DUBOIS         FAIR      43  23  45 NW18      29.78F
LANDER         CLOUDY    55  33  43 NW14G21   29.70R
RIVERTON       FAIR      54  32  43 NW20      29.70S
CASPER         MOCLDY    57  36  45 NW16      29.67R
DOUGLAS        FAIR      64  28  25 SW9       29.61F

$$
WYZ021-027>030-104>119-240300-
SOUTHERN WYOMING

CITY           SKY/WX    TMP DP  RH WIND       PRES   REMARKS
EVANSTON       CLOUDY    45  32  60 NW12      29.89R
KEMMERER         N/A     41  32  70 NW12      29.87S
FORT BRIDGER   RAIN      44  36  74 NW5       29.92R
ROCK SPRINGS   LGT RAIN  49  36  61 W10G26    29.85R
DIXON            N/A     60  23  24 SW10      29.78S
RAWLINS        FAIR      54  29  38 W17G28    29.75S
SARATOGA       FAIR      59  23  25 SW10      29.77F
LARAMIE        FAIR      53  27  36 SW10      29.77F
CHEYENNE       FAIR      55  33  43 SW7       29.76S
TORRINGTON     FAIR      63  32  31 SE8       29.63S
PINE BLUFFS    FAIR      59  36  41 CALM      29.71S

$$




USA.gov is the U.S. government's official web portal to all federal, state and local government web resources and services.